[[{"header":{"parameterUnit":"m.s-1","parameterCategory":1,"la1":30.2991,"la2":30.254,"lo1":-89.0895,"lo2":-89.0444,"dy":0.0017,"dx":0.0017,"nx":28,"ny":28,"refTime":"2024-11-22T03:00:00:Z","depth":0,"parameterNumber":2,"parameterNumberName":"U-component_of_WINDS"},"data":[0,0,0,0,0,0,0,0,0,0,0,0,0,0,0,0,0,0,0,0,0,0,0,0,0,0,0,0,0,0,0,0,0,0,0,0,0,0,0,0,0,0,0,0,0,0,0,0,0,0,0,0,0,0,0,0,0,0,-0.7217,-0.7216,0,-0.7149,-0.7149,-0.7148,-0.707,-0.7069,-0.7068,-0.7066,-0.6998,-0.6997,-0.6996,0,0,0,0,0,0,0,0,0,0,0,0,0,-0.7279,-0.7279,-0.7217,-0.7216,-0.7215,-0.715,-0.7149,-0.7148,-0.707,-0.7069,-0.7067,-0.7066,-0.6998,-0.6997,-0.6996,0,0,0,0,0,0,0,0,0,0,0,0,0,-0.7236,-0.7278,-0.7217,-0.7169,-0.7164,-0.715,-0.7149,-0.7147,-0.707,-0.7069,-0.7067,-0.7065,-0.6998,-0.6997,-0.6996,-0.7025,0,0,-0.6993,-0.6992,0,0,0,0,0,0,0,0,-0.7239,-0.7234,-0.7177,-0.7172,-0.7166,-0.7116,-0.7145,-0.7106,-0.7071,-0.7106,-0.7066,-0.7064,-0.7039,-0.7034,-0.7025,-0.7022,-0.7019,-0.6993,-0.6992,-0.6992,-0.6991,0,0,0,0,0,0,0,-0.7242,-0.7237,-0.719,-0.7176,-0.717,-0.7151,-0.7142,-0.7138,-0.7083,-0.7103,-0.7097,-0.709,-0.7036,-0.7027,-0.7023,-0.7018,-0.6993,-0.6992,-0.6991,-0.6991,-0.7035,-0.7036,0,0,0,0,0,0,-0.7252,-0.724,-0.7192,-0.7188,-0.7199,-0.7151,-0.7142,-0.7134,-0.7083,-0.7073,-0.7091,-0.7087,-0.7029,-0.7025,-0.7021,-0.7051,-0.6992,-0.6991,-0.699,-0.7033,-0.7035,-0.7037,0,0,0,0,0,0,-0.7254,-0.7249,-0.7195,-0.7212,-0.7204,-0.7152,-0.7144,-0.7134,-0.7125,-0.7074,-0.7064,-0.7092,-0.7028,-0.7022,-0.7024,-0.7048,-0.699,-0.6989,-0.7031,-0.7034,-0.7036,-0.7112,0,0,0,0,0,0,-0.7256,-0.725,-0.726,-0.7213,-0.7203,-0.72,-0.7145,-0.7134,-0.7123,-0.7116,-0.7073,-0.7064,-0.7026,-0.7027,-0.7023,-0.7045,-0.6988,-0.7028,-0.7032,-0.7035,-0.7108,-0.7117,-0.7126,0,0,0,0,0,-0.7258,-0.7284,-0.7261,-0.7255,-0.7215,-0.7202,-0.7196,-0.7152,-0.7125,-0.7135,-0.7103,-0.7065,-0.7046,-0.7027,-0.7023,-0.7045,-0.7027,-0.7031,-0.7035,-0.7103,-0.7115,-0.7126,0,0,0,0,0,0,-0.7334,-0.7277,-0.725,-0.7261,-0.7237,-0.7188,-0.7199,-0.7166,-0.7149,-0.7143,-0.7089,-0.708,-0.7089,-0.7067,-0.7048,-0.707,-0.7031,-0.7034,-0.7084,-0.7095,-0.7104,-0.7109,-0.6987,0,0,0,0,0,-0.7353,-0.7346,-0.7296,-0.7311,-0.73,-0.7252,-0.7245,-0.7213,-0.7186,-0.7175,-0.7143,-0.7118,-0.7106,-0.7099,-0.7086,-0.7104,-0.7094,-0.7117,-0.7126,-0.7134,-0.7138,-0.7147,-0.7156,-0.7051,-0.7051,-0.705,0,0,-0.739,-0.7357,-0.7357,-0.7325,-0.7303,-0.7298,-0.7244,-0.7241,-0.7237,-0.7174,-0.7175,-0.7151,-0.7119,-0.713,-0.7133,-0.7112,-0.7165,-0.7139,-0.7146,-0.7145,-0.7152,-0.7162,-0.7171,-0.7053,-0.7053,-0.7052,0,0,-0.7455,-0.743,-0.744,-0.7418,-0.7385,-0.7353,-0.7355,-0.7312,-0.7293,-0.7293,-0.7246,-0.7241,-0.7222,-0.7202,-0.7189,-0.7248,-0.7213,-0.7245,-0.7293,-0.7302,-0.731,-0.7318,-0.7339,-0.7348,-0.7249,-0.7249,-0.7249,0,-0.7506,-0.7496,-0.7449,-0.7449,-0.7437,-0.738,-0.739,-0.7372,-0.7336,-0.7329,-0.7306,-0.7281,-0.7256,-0.7261,-0.7276,-0.7267,-0.7269,-0.725,-0.7313,-0.732,-0.7326,-0.7346,-0.7354,-0.7253,-0.7253,-0.7252,-0.7252,0,-0.756,-0.7555,-0.7567,-0.7533,-0.7523,-0.7528,-0.7482,-0.7476,-0.7446,-0.7417,-0.7418,-0.7386,-0.7365,-0.7364,-0.7334,-0.7366,-0.7354,-0.7323,-0.7282,-0.7341,-0.7359,-0.7366,-0.7259,-0.7258,-0.7256,-0.7255,0,0,-0.7671,-0.7612,-0.7618,-0.7602,-0.7561,-0.7556,-0.7559,-0.7539,-0.7536,-0.7513,-0.7515,-0.7501,-0.7472,-0.7457,-0.7425,-0.7433,-0.7483,-0.7401,-0.7399,-0.7418,-0.7517,-0.7541,-0.755,-0.7459,-0.7461,-0.7462,-0.752,0,-0.773,-0.7731,-0.7689,-0.7702,-0.7697,-0.7643,-0.7646,-0.7622,-0.7595,-0.7587,-0.7557,-0.7548,-0.751,-0.7501,-0.7507,-0.7476,-0.7502,-0.7471,-0.7461,-0.7461,-0.7471,-0.756,-0.7585,-0.7641,-0.7526,-0.7527,-0.7528,0,-0.7797,-0.7779,-0.7792,-0.7751,-0.7748,-0.7751,-0.7729,-0.7722,-0.7694,-0.7674,-0.7659,-0.7622,-0.7622,-0.7584,-0.7584,-0.7564,-0.7557,-0.7542,-0.7543,-0.754,-0.7498,-0.756,-0.7658,-0.7666,-0.7539,-0.7538,-0.7537,0,-0.7878,-0.7856,-0.7861,-0.7849,-0.7802,-0.7806,-0.7787,-0.7756,-0.7747,-0.7729,-0.7723,-0.7705,-0.7695,-0.7682,-0.7641,-0.7617,-0.7647,-0.7605,-0.7631,-0.7632,-0.7639,-0.764,-0.7738,-0.7635,-0.7635,-0.7635,-0.7635,0,-0.7947,-0.7957,-0.7897,-0.79,-0.791,-0.7862,-0.7873,-0.7848,-0.7822,-0.782,-0.7773,-0.7772,-0.7718,-0.7712,-0.768,-0.7686,-0.7682,-0.7666,-0.7657,-0.767,-0.7672,-0.7665,-0.7661,-0.7637,-0.7637,-0.7636,-0.7636,0,-0.8039,-0.7998,-0.8,-0.7956,-0.7945,-0.7954,-0.7916,-0.7918,-0.7888,-0.7886,-0.7883,-0.7837,-0.7827,-0.7785,-0.7765,-0.7744,-0.776,-0.7743,-0.777,-0.7764,-0.7793,-0.7791,-0.789,-0.7901,-0.7791,-0.7792,-0.7793,0,-0.8086,-0.8092,-0.8049,-0.8044,-0.8027,-0.8019,-0.801,-0.7963,-0.7956,-0.7924,-0.793,-0.7916,-0.7902,-0.7889,-0.7853,-0.7838,-0.7821,-0.7857,-0.7818,-0.7831,-0.7822,-0.7822,-0.7823,-0.7865,-0.7866,-0.7868,-0.7868,0,-0.8174,-0.8154,-0.8142,-0.8124,-0.8114,-0.8097,-0.8078,-0.8077,-0.8025,-0.8018,-0.8007,-0.7997,-0.7977,-0.7964,-0.7942,-0.7923,-0.7888,-0.7881,-0.7886,-0.7899,-0.7915,-0.7907,-0.7793,-0.7879,-0.7878,-0.7877,-0.7877,-0.7876,-0.8245,-0.8248,-0.8219,-0.8207,-0.8188,-0.8171,-0.817,-0.8141,-0.8131,-0.8111,-0.8084,-0.8077,-0.8049,-0.8017,-0.8,-0.7994,-0.7974,-0.7982,-0.7984,-0.7987,-0.7993,-0.7916,-0.799,-0.799,-0.799,-0.7989,-0.7989,0,-0.8331,-0.8309,-0.8299,-0.8274,-0.8265,-0.8233,-0.821,-0.8205,-0.8199,-0.8176,-0.8164,-0.8152,-0.8139,-0.8104,-0.8088,-0.809,-0.8074,-0.8088,-0.8087,-0.8083,-0.8012,-0.8009,-0.8101,-0.8101,-0.8101,-0.8101,-0.8101,-0.8101,-0.8375,-0.8379,-0.8356,-0.8351,-0.8329,-0.8322,-0.8311,-0.8296,-0.8278,-0.8266,-0.8256,-0.8233,-0.8205,-0.8187,-0.8174,-0.8164,-0.8161,-0.818,-0.8165,-0.8099,-0.8088,-0.8078,-0.8075,-0.818,-0.818,-0.8237,-0.8237,-0.8238]},{"header":{"parameterUnit":"m.s-1","parameterCategory":1,"la1":30.2991,"la2":30.254,"lo1":-89.0895,"lo2":-89.0444,"dy":0.0017,"dx":0.0017,"nx":28,"ny":28,"refTime":"2024-11-22T03:00:00:Z","depth":0,"parameterNumber":3,"parameterNumberName":"V-component_of_WINDS"},"data":[0,0,0,0,0,0,0,0,0,0,0,0,0,0,0,0,0,0,0,0,0,0,0,0,0,0,0,0,0,0,0,0,0,0,0,0,0,0,0,0,0,0,0,0,0,0,0,0,0,0,0,0,0,0,0,0,0,0,1.0913,1.0913,0,1.0875,1.0875,1.0874,1.0882,1.0883,1.0883,1.0884,1.0842,1.0841,1.0839,0,0,0,0,0,0,0,0,0,0,0,0,0,1.0991,1.099,1.0913,1.0913,1.0912,1.0875,1.0875,1.0874,1.0882,1.0883,1.0884,1.0884,1.0843,1.0841,1.0839,0,0,0,0,0,0,0,0,0,0,0,0,0,1.0955,1.0989,1.0913,1.0912,1.0911,1.0875,1.0875,1.0874,1.0882,1.0883,1.0884,1.0885,1.0844,1.0841,1.0838,1.0801,0,0,1.083,1.0829,0,0,0,0,0,0,0,0,1.0957,1.0953,1.0913,1.0912,1.0911,1.0885,1.0887,1.0849,1.0881,1.0893,1.0884,1.0885,1.0855,1.0852,1.0842,1.0799,1.0797,1.083,1.0828,1.0827,1.0826,0,0,0,0,0,0,0,1.096,1.0954,1.0898,1.0912,1.0911,1.0912,1.0909,1.088,1.0868,1.0892,1.0892,1.0888,1.0855,1.0845,1.0841,1.0796,1.083,1.0828,1.0826,1.0825,1.072,1.0719,0,0,0,0,0,0,1.0963,1.0956,1.0899,1.0897,1.0938,1.091,1.0906,1.0892,1.0869,1.0866,1.0887,1.0888,1.0849,1.0844,1.084,1.0794,1.0827,1.0825,1.0823,1.0722,1.072,1.0719,0,0,0,0,0,0,1.0965,1.0958,1.0901,1.0927,1.092,1.0908,1.0892,1.0891,1.088,1.0865,1.0863,1.0879,1.0849,1.0844,1.0811,1.0793,1.0824,1.0821,1.0723,1.0721,1.0719,1.0702,0,0,0,0,0,0,1.0967,1.0959,1.0945,1.0926,1.0918,1.0873,1.0891,1.0889,1.0876,1.0877,1.0857,1.0854,1.085,1.0815,1.0808,1.079,1.0819,1.0724,1.0722,1.072,1.0704,1.07,1.0697,0,0,0,0,0,1.097,1.0941,1.0944,1.0937,1.0901,1.0872,1.0867,1.0863,1.0875,1.086,1.0851,1.0855,1.0796,1.0811,1.0804,1.0784,1.0726,1.0723,1.072,1.0706,1.0701,1.0697,0,0,0,0,0,0,1.0956,1.0938,1.0942,1.0906,1.089,1.0873,1.0855,1.0858,1.0838,1.084,1.0836,1.0831,1.0797,1.0788,1.0805,1.0747,1.0762,1.0758,1.0754,1.0749,1.0745,1.0748,1.0817,0,0,0,0,0,1.0949,1.0928,1.0913,1.0883,1.0875,1.0866,1.0854,1.0852,1.0836,1.0829,1.0817,1.08,1.0778,1.0763,1.0742,1.0704,1.0699,1.0687,1.0683,1.068,1.0676,1.0655,1.0649,1.071,1.071,1.071,0,0,1.0933,1.0921,1.0908,1.088,1.0868,1.0845,1.0861,1.0836,1.0819,1.0825,1.0793,1.0784,1.0765,1.0729,1.0713,1.072,1.0658,1.0676,1.0674,1.0671,1.0651,1.0645,1.064,1.0708,1.0709,1.0709,0,0,1.0894,1.0883,1.0857,1.0845,1.0827,1.0821,1.0815,1.0798,1.0792,1.076,1.0764,1.0744,1.0706,1.0692,1.068,1.0637,1.064,1.063,1.0609,1.0589,1.0584,1.0579,1.0563,1.0558,1.0626,1.0626,1.0626,0,1.0877,1.0844,1.0843,1.0818,1.0805,1.0811,1.0784,1.0772,1.0747,1.0738,1.0747,1.07,1.0687,1.0648,1.0638,1.0628,1.0621,1.0632,1.0585,1.058,1.0576,1.0561,1.0555,1.0625,1.0625,1.0625,1.0626,0,1.0824,1.0801,1.0782,1.0759,1.0745,1.0719,1.0713,1.0698,1.0698,1.0692,1.066,1.0645,1.0621,1.0612,1.0612,1.0573,1.0578,1.0586,1.0601,1.0569,1.0555,1.0549,1.0624,1.0624,1.0624,1.0625,0,0,1.0773,1.0751,1.0744,1.0734,1.0715,1.0697,1.0672,1.0649,1.0636,1.062,1.0598,1.0566,1.0573,1.056,1.0558,1.054,1.0507,1.055,1.055,1.0542,1.0463,1.0456,1.045,1.0509,1.0508,1.0507,1.0464,0,1.0731,1.0687,1.0685,1.0645,1.0624,1.0629,1.0607,1.0593,1.0587,1.0567,1.056,1.0537,1.0549,1.0541,1.0523,1.0514,1.049,1.0518,1.0488,1.0487,1.0491,1.0442,1.0435,1.0395,1.0459,1.0458,1.0457,0,1.0676,1.0659,1.0617,1.0601,1.0592,1.0573,1.0552,1.0534,1.0518,1.0514,1.05,1.0501,1.0475,1.0492,1.0455,1.0474,1.0462,1.0455,1.0454,1.045,1.0469,1.0436,1.0382,1.0376,1.0448,1.0449,1.0449,0,1.0642,1.0609,1.0579,1.057,1.0552,1.0538,1.053,1.0515,1.0502,1.0484,1.0475,1.0454,1.0442,1.0425,1.0421,1.0434,1.0384,1.0401,1.0379,1.0379,1.0367,1.0368,1.031,1.0361,1.0361,1.0362,1.0362,0,1.0595,1.0569,1.0564,1.0545,1.0516,1.0515,1.0485,1.0478,1.0465,1.0445,1.0449,1.0429,1.0425,1.0405,1.0401,1.0371,1.0365,1.0361,1.036,1.036,1.0361,1.0351,1.0354,1.036,1.036,1.0361,1.0361,0,1.0552,1.0548,1.0516,1.0502,1.0497,1.0476,1.0464,1.0446,1.0441,1.0415,1.0409,1.04,1.0377,1.0371,1.0343,1.034,1.0304,1.0307,1.031,1.031,1.0288,1.029,1.0222,1.0212,1.0271,1.027,1.027,0,1.0522,1.0502,1.0486,1.0473,1.0465,1.0444,1.0431,1.0429,1.0415,1.0396,1.038,1.0358,1.0339,1.0302,1.0292,1.0271,1.0272,1.0249,1.0268,1.0269,1.027,1.0271,1.0269,1.0245,1.0244,1.0244,1.0244,0,1.0468,1.0467,1.0449,1.043,1.0414,1.0399,1.0384,1.0373,1.0369,1.0353,1.033,1.0316,1.0288,1.0265,1.0244,1.0235,1.0238,1.0238,1.0232,1.0231,1.0233,1.0231,1.0299,1.0239,1.024,1.024,1.024,1.024,1.043,1.0413,1.0399,1.0378,1.0368,1.0354,1.0337,1.033,1.0311,1.0288,1.0288,1.0263,1.0248,1.0219,1.0209,1.0189,1.0195,1.0186,1.0184,1.0182,1.0179,1.0238,1.0185,1.0185,1.0185,1.0185,1.0185,0,1.0376,1.0368,1.0349,1.0329,1.0313,1.0319,1.0304,1.0289,1.0267,1.0253,1.0236,1.0209,1.0187,1.0177,1.0155,1.0141,1.0142,1.0135,1.0135,1.0133,1.0175,1.0182,1.0134,1.0134,1.0134,1.0134,1.0134,1.0135,1.0346,1.0317,1.0315,1.0281,1.0272,1.0248,1.0239,1.0226,1.0215,1.0185,1.0168,1.0162,1.0149,1.0127,1.0107,1.0104,1.0096,1.0088,1.0086,1.0125,1.013,1.0135,1.0142,1.0086,1.0086,1.0046,1.0045,1.0045]}]]